Lid_Strength_Index
11 10 10 11 11 11 13 12 15 13 13 10 8 8 7 6 6 6 6 5 6 7 8 8 7 8 9 9 9 10 12 12 12 11 11 12 12 11 12 12 12 12 12 13
12 10 11 13 11 11 11 11 12 11 11 7 7 7 7 7 6 6 6 6 5 5 6 7 7 8 8 9 10 11 11 12 11 11 11 11 12 12 12 12 12 12 13 13
16 11 12 16 12 12 11 10 10 13 9 7 8 7 7 6 6 6 6 5 5 4 5 5 6 7 9 9 10 11 11 11 11 11 12 12 12 13 13 14 13 14 14 13
15 13 20 11 8 9 10 10 8 9 8 7 7 6 6 5 6 6 5 5 5 4 4 5 5 6 7 8 10 11 11 12 12 12 13 13 14 14 14 14 15 15 14 14
16 16 13 11 10 10 11 10 8 8 8 7 6 6 6 5 4 5 5 5 5 5 3 4 6 7 8 9 10 11 11 12 12 13 14 14 15 15 15 15 15 15 15 15
14 18 19 12 9 7 7 13 7 7 8 7 7 9 7 5 5 5 6 6 6 5 5 6 7 8 9 11 11 11 12 12 12 13 14 14 15 16 15 15 15 15 15 14
15 16 13 9 8 7 13 12 7 7 6 7 8 7 5 4 5 6 6 7 7 7 7 8 8 8 10 11 11 11 11 12 12 13 14 14 15 15 16 16 15 15 15 14
14 17 18 8 9 11 8 7 6 6 6 6 6 5 5 5 6 7 7 7 7 8 8 8 8 9 10 11 10 11 12 12 13 13 14 15 15 16 16 16 16 16 15 15
12 12 8 7 7 6 5 6 6 6 5 5 6 5 5 5 6 6 7 7 7 7 8 8 8 8 9 10 10 11 12 13 13 13 14 15 16 16 16 15 15 16 16 16
11 9 9 7 6 6 6 7 5 4 4 5 5 5 5 5 6 6 7 7 7 8 8 9 8 8 8 9 10 11 12 13 13 14 14 14 14 14 15 15 16 16 16 16
10 9 9 8 6 7 7 5 5 4 5 5 4 5 4 5 5 6 6 7 7 8 9 9 8 9 9 9 10 11 12 13 13 13 14 14 14 14 15 14 14 15 15 15
11 8 8 8 6 6 7 6 6 6 5 5 5 5 4 4 5 6 6 7 7 8 8 9 9 9 9 9 10 11 12 12 13 13 14 14 14 15 14 15 15 15 15 14
8 7 7 6 7 7 7 6 6 5 5 6 4 4 4 5 7 8 8 8 8 8 9 9 10 9 9 9 10 10 11 12 12 13 13 14 15 15 16 15 13 13 13 13
6 7 8 7 7 6 6 6 5 5 5 4 4 3 4 7 9 10 10 9 9 9 9 9 10 10 10 10 10 11 11 12 12 13 13 14 14 14 14 14 14 12 13 13
8 7 7 5 6 5 5 5 6 6 6 5 4 4 6 8 9 10 10 10 10 10 11 11 11 11 10 11 11 11 11 12 12 13 13 13 13 13 13 13 13 13 14 15
6 6 6 7 7 6 6 6 7 6 5 5 5 7 7 8 9 9 10 10 11 12 12 12 12 12 12 12 12 12 12 13 13 13 14 14 13 13 13 13 13 14 14 14
8 8 7 8 7 7 6 6 6 6 5 5 6 7 8 9 9 10 11 11 11 12 12 12 12 14 13 13 12 12 12 13 13 12 12 12 12 13 13 13 13 14 14 14
7 6 7 7 7 7 6 6 5 5 5 6 8 9 10 10 11 11 12 13 14 15 13 14 15 16 14 12 11 11 11 12 12 12 12 12 12 12 13 13 13 14 14 15
7 7 7 7 7 6 6 6 6 7 8 8 9 10 10 10 11 13 14 14 15 15 16 16 15 14 13 12 11 11 11 12 12 12 12 13 13 13 13 13 13 13 14 14
8 8 8 8 7 7 8 8 8 9 9 9 10 11 12 13 14 15 14 14 13 12 15 15 14 13 12 12 12 11 11 12 12 12 12 13 13 13 13 14 13 13 14 14
9 9 9 9 9 8 8 8 10 10 10 10 10 11 13 15 15 16 16 14 15 16 14 15 13 12 12 12 13 12 12 12 12 12 13 13 13 13 13 13 14 14 14 14
9 9 10 10 10 10 10 10 10 12 11 11 12 14 15 16 17 16 17 13 15 16 14 14 12 13 12 14 11 11 12 12 12 12 12 13 13 14 14 14 14 14 14 15
10 10 11 11 11 11 11 10 11 11 12 13 14 14 14 15 15 15 15 15 14 16 13 12 13 15 15 12 12 12 12 12 12 13 13 13 14 14 14 14 15 15 15 15
13 11 11 11 11 12 13 14 13 13 13 13 13 14 15 15 15 15 14 16 15 15 13 13 15 16 16 12 12 12 13 13 13 13 13 15 14 15 15 15 15 15 15 16
14 12 12 12 12 13 14 14 15 15 15 15 15 15 15 14 13 14 14 15 16 16 15 18 17 18 15 14 14 14 14 13 13 14 14 15 15 15 14 15 15 15 15 15
12 13 13 13 13 13 13 13 14 14 15 16 16 16 15 15 15 15 15 16 16 16 15 16 16 17 16 15 15 15 14 14 15 15 15 14 14 14 14 14 14 14 15 15
12 13 13 13 13 13 13 14 14 15 15 15 16 16 15 15 15 16 16 16 16 16 16 16 16 16 15 15 15 15 15 15 15 14 14 13 13 13 13 13 14 14 16 17